This is the latest recevied weather packets stored in our database for station/object KQ7A. If no packets are shown the sender has not sent any weather packets the latest 10 day(s).
| Time | Temp. | Humidity | Pressure | Rain* | Wind** | Luminosity | Snow |
|---|---|---|---|---|---|---|---|
| 1788640796 | 22.78° C | 30% | 1016.4 hPa | 0 mm | - | 645 W/m² | - |
| 1788640492 | 22.78° C | 29% | 1016.8 hPa | 0 mm | - | 623 W/m² | - |
| 1788640187 | 22.78° C | 30% | 1016.6 hPa | 0 mm | - | 630 W/m² | - |
| 1788639883 | 22.78° C | 28% | 1016.8 hPa | 0 mm | - | 672 W/m² | - |
| 1788639578 | 22.22° C | 30% | 1016.8 hPa | 0 mm | - | 675 W/m² | - |
| 1788639273 | 22.78° C | 30% | 1016.7 hPa | 0 mm | - | 687 W/m² | - |
| 1788638973 | 22.22° C | 29% | 1016.9 hPa | 0 mm | - | 698 W/m² | - |
| 1788638669 | 22.22° C | 30% | 1016.9 hPa | 0 mm | - | 710 W/m² | - |
| 1788638367 | 21.67° C | 30% | 1016.6 hPa | 0 mm | - | 717 W/m² | - |
| 1788638062 | 22.22° C | 30% | 1016.8 hPa | 0 mm | - | 722 W/m² | - |
| 1788637758 | 21.67° C | 29% | 1016.8 hPa | 0 mm | - | 731 W/m² | - |
| 1788637457 | 21.67° C | 30% | 1016.9 hPa | 0 mm | - | 739 W/m² | - |
| 1788637157 | 22.22° C | 30% | 1017.3 hPa | 0 mm | - | 741 W/m² | - |
| 1788636852 | 21.67° C | 29% | 1017 hPa | 0 mm | - | 718 W/m² | - |
| 1788636547 | 21.67° C | 31% | 1016.9 hPa | 0 mm | - | 719 W/m² | - |
| 1788636243 | 21.67° C | 31% | 1017.1 hPa | 0 mm | - | 744 W/m² | - |
| 1788635937 | 21.67° C | 29% | 1017.1 hPa | 0 mm | - | 766 W/m² | - |
| 1788635636 | 21.11° C | 30% | 1016.9 hPa | 0 mm | - | 753 W/m² | - |
| 1788635335 | 21.67° C | 32% | 1017.3 hPa | 0 mm | - | 764 W/m² | - |
| 1788635028 | 21.67° C | 30% | 1017.6 hPa | 0 mm | - | 765 W/m² | - |
| 1788634727 | 21.67° C | 32% | 1017.4 hPa | 0 mm | - | 794 W/m² | - |
| 1788634417 | 21.11° C | 32% | 1017.3 hPa | 0 mm | - | 801 W/m² | - |
| 1788634116 | 21.11° C | 33% | 1017.5 hPa | 0 mm | - | 819 W/m² | - |
| 1788633816 | 21.11° C | 33% | 1017.6 hPa | 0 mm | - | 865 W/m² | - |
| 1788633514 | 21.11° C | 31% | 1017.5 hPa | 0 mm | - | 858 W/m² | - |
* Rain latest hour (hover to see other rain measurements)
** Current wind speed in m/s (hover to see current wind gust speed)